sat.trackr.live / text

‹ back to catalog

STARLINK-31461

NORAD 59370 · 2024-060Y

PAYLOAD ACTIVE UNKNOWN

§ Identity

Operator
Country
US
Launch date
2024-03-31
Launch site
AFETR
Launch vehicle
Mass (kg)
RCS (m²)

Purposes: comms

External: N2YO · Heavens-Above · Gunter

§ Orbital elements

Epoch: 2026-09-20T21:42:33.517440Z

Period
94.27 min
Inclination
43.0026°
Eccentricity
0.0001353
Mean motion
15.27578336 rev/d
Perigee alt
482.1 km
Apogee alt
484.0 km
Semi-major
6,861.2 km
B*
2.1204e-5
RAAN
226.5497°
Arg perigee
265.6802°
Mean anomaly
94.3895°
Rev number
13,998

§ Raw data

STARLINK-314611 59370U 24060Y   26263.90455460  .00000321  00000+0  21204-4 0  99962 59370  43.0026 226.5497 0001353 265.6802  94.3895 15.27578336139982

JSON: /api/v1/satellites/59370 · /tle

For live sub-satellite position, see the globe view (requires WebGL).

§ Visibility from observer

Set your observer location to see the next 7 days of passes ≥ 10°. The values pass through the URL so the page stays shareable.

No JS? Fill the form by hand. The geolocation button needs JavaScript.